Nicolás Posco fue el más rápido en la única tanda de entrenamientos de la Clase 2 del Turismo Nacional, en el marco de la cuarta fecha de la temporada. El piloto de Moreno marcó un tiempo de 1:37.438 para ser la referencia inicial con el Ford Fiesta Kinetic que atiende el Ale Bucci Racing.

En el Autódromo Roberto Mouras de La Plata, el segundo lugar quedó en manos de Tomás Bergallo, a 7 centésimas; mientras que Maximiliano Bestani finalizó en el tercer puesto, a 15 centésimas de la punta.

Por su parte, las diez primeras posiciones las completaron Thiago Martínez, Gastón Iansa, Lucas Tedeschi, Sebastián Pérez, Christian Abdala, Ignacio Procacitto y Luciano González.

    Entrenamiento TN Clase 2 – La Plata    

Pos. Piloto Marca Vtas. Tiempo Dif.
1 3 NICOLAS POSCO FIESTA KINETIC 4 1:37.438
2 144 TOMÁS BERGALLO TOYOTA ETIOS 6 1:37.511 0.073
3 11 MAXIMILIANO BESTANI FIESTA KINETIC 6 1:37.597 0.159
4 152 THIAGO MARTINEZ RENAULT CLIO 3 1:37.621 0.183
5 5 GASTON IANSA FIESTA KINETIC 5 1:38.046 0.608
6 72 LUCAS TEDESCHI TOYOTA ETIOS 5 1:38.149 0.711
7 4 SEBASTIAN PEREZ CHEVROLET ONIX 6 1:38.322 0.884
8 29 CHRISTIAN ABDALA TOYOTA ETIOS 7 1:38.343 0.905
9 31 IGNACIO PROCACITTO VW TREND 6 1:38.402 0.964
10 41 LUCIANO GONZALEZ FIESTA KINETIC 5 1:38.435 0.997
11 95 EMANUEL ABDALA TOYOTA ETIOS 7 1:38.493 1.055
12 10 ALEJO BORGIANI VW TREND 6 1:38.601 1.163
13 100 MAURO SALVI TOYOTA ETIOS 5 1:38.661 1.223
14 87 YAMIL APUD RENAULT CLIO 6 1:38.669 1.231
15 120 MATEO NUÑEZ NISSAN MARCH 5 1:38.728 1.290
16 14 FACUNDO LEANEZ TOYOTA ETIOS 7 1:38.966 1.528
17 6 GERONIMO NUÑEZ TOYOTA ETIOS 7 1:39.088 1.650
18 44 SANDRO ABDALA RENAULT CLIO 5 1:39.205 1.767
19 19 FERNANDO GOMEZ FREDES NISSAN MARCH 4 1:39.223 1.785
20 84 LUCAS YEROBI RENAULT CLIO 4 1:39.238 1.800
21 75 JOSÉ LUIS ARRATE RENAULT CLIO 4 1:39.264 1.826
22 159 AGUSTÍN BONOMO DS3 5 1:39.349 1.911
23 62 CHRISTIAN BODRATO MIONETTO FIAT PALIO 5 1:39.367 1.929
24 26 DAMIAN KIRSTEIN PEUGEOT 208 5 1:39.442 2.004
25 12 MIGUEL CIAURRO VW TREND 5 1:39.633 2.195
26 18 GABRIEL SCORDIA FIAT ARGO 5 1:39.639 2.201
27 17 RENZO TESTA FIAT ARGO 3 1:39.684 2.246
28 116 ALEJANDRO TORRISI NISSAN MARCH 5 1:39.759 2.321
29 22 DIEGO LEANEZ TOYOTA ETIOS 5 1:39.761 2.323
30 8 JOEL BORGOBELLO VW TREND 4 1:39.966 2.528
31 64 MIGUEL ARGAÑARAZ RENAULT CLIO 5 1:40.531 3.093
32 30 VALDERREY ALEJANDRO FIAT ARGO 3 1:42.330 4.892
33 123 FABRICIO BENITEZ TOYOTA ETIOS 3 1:54.339 16.901

S.B

Compartir